Regional Weather Roundup
Issued by NWS

Home | Current Version | Previous Version | Text Only | Print | Product List | Glossary Off
Versions: 1 2 3 4 5 6 7 8 9 10 11 12 13 14 15 16 17 18 19 20 21 22 23 24 25 26 27 28 29 30 31 32 33 34 35 36 37 38 39 40 41 42 43 44 45 46 47 48 49 50

095
ASUS45 KSLC 232010
RWRUT

UTAH REGIONAL WEATHER ROUNDUP
NATIONAL WEATHER SERVICE SALT LAKE CITY UT
200 PM MDT THU MAR 23 2017

UTZ001>011-023>025-232100-

NORTHERN UTAH

CITY           SKY/WX    TMP DP  RH WIND       PRES   REMARKS
BRIGHAM CITY     N/A     42  36  78 W8        29.88R
DUGWAY         LGT RAIN  41  38  89 NW16G22   29.91R
HILL AFB       LGT SNOW  33  32  97 SE6       29.88R FOG     WCI  27
LOGAN          LGT RAIN  42  39  89 S10       29.85R
OGDEN          RAIN      36  35  96 S7        29.88R FOG     WCI  30
SALT LAKE CITY LGT SNOW  33  33 100 W5        29.90R FOG     WCI  29
WENDOVER       NOT AVBL
HEBER CITY     MIX PCPN  41  36  81 CALM      29.81R

$$

UTZ011>015-024>027-232100-

CENTRAL/NORTHEAST UTAH

CITY           SKY/WX    TMP DP  RH WIND       PRES   REMARKS
PROVO AIRPORT  LGT RAIN  40  37  89 NW18      29.89R WCI  31
MOAB/CANYONLAN CLOUDY    55  37  50 W23       29.73S
DELTA          CLOUDY    37  36  93 NW12      29.93R WCI  30
PRICE          CLOUDY    43  39  86 NE10      29.76F
RICHFIELD      CLOUDY    45  32  61 SE7G18    29.88R
ROOSEVELT      MOSUNNY   52  37  58 W9G18     29.76F
VERNAL         CLOUDY    54  38  54 W9        29.72F

$$

UTZ013>016-019>022-027-232100-

SOUTHERN UTAH

CITY           SKY/WX    TMP DP  RH WIND       PRES   REMARKS
BRYCE CANYON   CLOUDY    39  27  62 W21G30    29.85S WCI  29
CEDAR CITY     LGT RAIN  36  34  92 N5        29.93R FOG     WCI  32
MILFORD        LGT RAIN N/A N/A N/A NE14      29.94R
ST GEORGE      CLOUDY    54  36  50 W14       29.93R
HANKSVILLE     CLOUDY    50  36  57 SW3       29.80S
KANAB          PTSUNNY   50  36  57 SW12G18   29.92F
BLANDING       CLOUDY    45  33  63 SW12G21   29.88F

$$

REGIONAL REPORTS     COLORADO/ARIZONA

CITY           SKY/WX    TMP DP  RH WIND       PRES   REMARKS
CRAIG, CO      CLOUDY    57  21  24 SW20G29   29.69S
GRAND JUNCTION CLOUDY    56  32  40 SE5       29.72S
RIFLE, CO      CLOUDY    56  30  37 W16       29.71F
MONTROSE, CO   CLOUDY    50  32  50 W10       29.76R
CORTEZ, CO     CLOUDY    41  37  86 NW14      29.81S
COLORADO CITY  MOCLDY    52  34  50 W17       29.94R
PAGE, AZ       CLOUDY    53  32  44 W9G23     29.83S
GRAND CANYON   FLURRIES  40  31  70 W13       29.92S WCI  32
KINGMAN, AZ    MOSUNNY   57  28  33 SW20G25   29.98R
FLAGSTAFF, AZ  LGT SNOW  32  31  96 SW13      29.94S VSB 3/4 WCI  22

$$

REGIONAL REPORTS    NEVADA/IDAHO/WYOMING

CITY           SKY/WX    TMP DP  RH WIND       PRES   REMARKS
LAS VEGAS, NV  PTSUNNY   65  30  27 N13G23    29.95R
ELY, NY        PTSUNNY   44  28  53 N16G26    29.97R
ELKO, NV       PTSUNNY   48  27  44 NW14      30.04S
POCATELLO, ID  MOSUNNY   45  37  73 W23       29.91S
BURLEY, ID     LGT RAIN  50  31  48 W21G36    29.92R
FORT BRIDGER,  CLOUDY    38  38  97 W14G20    29.80S WCI  30
EVANSTON, WY   LGT SNOW  33  30  88 W12       29.82R VSB 3/4 WCI  24
ROCK SPRINGS,  CLOUDY    46  35  65 W8        29.74R
KEMMERER, WY   SNOW      34  32  93 SW9       29.78R VSB<1/4 WCI  26

$$




USA.gov is the U.S. government's official web portal to all federal, state and local government web resources and services.